Location: *
(45.1961°N, 1.9694°E)
Time: 03:14:57
(UTC+00:00)

Cosmos 2360 Rocket - Pass Details

Date: 25 August 2019
Orbit: 833 x 846 km, 71.0° (Epoch: 23 October)

Event Time Altitude Azimuth Distance (km) Brightness Sun altitude
Rises 23:19:24 0° 330° (NNW) 3,394 6.3 -33.7°
Reaches altitude 10° 23:21:53 10° 326° (NW) 2,457 5.3 -33.7°
Enters shadow 23:25:20 36° 307° (NW) 1,310 3.4 -33.8°
